Wind_Speed
21 21 19 18 18 18 18 19 19 18 18 20 19 18 17 17 17 17 16 16 16 16 16 16 17 18 19 19 20 21 22 23 23 23 22 22 21 21 22 22 22 23 23 23
22 22 20 20 20 21 20 19 18 19 20 21 19 19 19 19 20 19 18 18 19 18 19 18 18 19 20 20 21 23 23 23 23 23 23 23 22 23 23 23 23 23 24 24
23 21 21 22 21 21 19 19 20 21 21 20 20 20 21 21 21 21 20 19 20 20 21 21 21 21 21 21 22 23 23 23 23 23 23 23 24 24 24 24 25 25 25 26
24 22 23 23 22 22 22 22 21 22 22 20 21 19 20 21 21 21 20 20 20 21 20 21 22 22 22 23 23 23 23 24 23 23 24 24 25 25 25 25 26 26 26 27
25 24 24 24 21 22 22 23 23 22 23 24 24 23 20 20 20 19 20 20 21 21 22 22 23 23 23 24 24 24 24 25 25 25 25 25 26 26 26 26 27 27 27 27
26 25 25 25 22 21 22 24 24 24 25 25 24 24 22 22 23 21 21 22 22 23 23 24 24 24 25 25 25 25 25 26 26 26 26 27 27 27 28 27 27 27 27 27
26 26 27 26 24 23 25 26 25 24 25 26 25 25 24 23 23 22 22 23 23 24 24 24 25 25 26 26 25 26 26 26 26 27 27 27 27 28 28 28 28 28 27 27
26 27 28 27 25 24 26 27 26 25 25 26 25 23 22 22 22 22 22 23 23 24 25 25 26 26 26 27 27 26 26 27 28 28 28 28 28 27 27 27 28 28 28 27
29 30 28 26 25 27 27 27 26 25 26 26 24 23 23 22 22 22 23 23 23 24 25 25 26 27 27 27 28 27 27 27 28 29 29 29 28 28 27 27 27 27 28 27
30 30 30 30 29 29 28 26 26 25 25 25 24 24 25 25 24 23 23 24 25 25 26 26 27 28 27 28 28 28 28 29 29 29 29 29 29 28 27 28 28 27 28 28
32 31 31 32 31 30 29 27 26 24 25 25 25 26 26 26 25 25 26 26 26 26 26 27 27 28 27 27 28 28 29 29 29 29 29 30 29 29 29 29 28 28 29 29
32 31 31 31 30 30 28 27 27 26 27 27 27 28 27 27 27 27 27 27 27 27 27 28 28 27 27 28 28 28 29 29 29 30 30 30 29 29 29 29 29 29 30 30
31 30 30 29 29 29 27 27 26 25 26 27 27 27 28 29 27 27 27 27 27 27 27 28 28 27 27 28 28 28 29 29 30 30 30 30 30 30 30 29 29 29 30 30
29 29 28 27 28 29 28 27 27 27 27 27 28 28 29 29 28 28 28 27 27 28 28 27 27 28 28 28 28 29 29 29 30 30 30 30 30 30 30 30 31 30 29 29
29 29 28 26 27 28 29 28 27 27 28 28 29 29 29 29 29 29 29 28 28 29 28 28 27 28 28 28 28 29 29 30 30 31 30 30 30 30 30 30 30 30 29 30
27 27 26 27 28 28 28 28 27 27 27 28 28 28 28 28 27 28 28 27 28 28 28 28 27 27 28 29 29 30 30 30 31 30 30 29 29 29 30 30 30 30 30 29
27 27 26 26 27 27 27 27 27 26 26 27 27 27 27 27 26 27 27 27 27 27 28 28 28 28 29 29 29 30 30 30 30 30 29 29 29 29 29 30 30 30 28 27
28 27 26 25 25 26 26 26 27 26 26 27 28 28 27 26 26 26 26 26 26 27 28 28 28 28 29 29 29 29 29 30 30 29 29 29 29 29 29 29 29 29 28 28
24 25 25 25 24 25 25 25 26 26 26 27 27 27 28 27 27 27 27 27 27 27 28 28 28 28 29 29 29 29 30 30 30 30 29 29 29 29 29 29 28 28 28 29
23 24 25 25 25 25 25 25 26 26 27 27 26 26 27 27 27 27 27 28 28 28 28 28 28 28 29 30 29 29 29 29 29 29 29 29 29 29 29 29 29 29 29 29
22 22 23 24 25 25 26 26 25 25 26 26 26 26 26 27 27 27 27 27 28 29 28 28 28 29 29 29 29 29 29 28 28 28 28 29 29 29 29 29 29 29 29 29
23 23 23 23 24 25 26 25 25 25 25 26 26 26 26 27 28 28 27 27 28 28 28 28 28 29 29 29 28 27 27 27 27 28 28 28 29 29 29 29 29 29 29 30
23 22 22 22 22 23 23 23 24 24 24 24 25 25 26 26 26 26 27 27 27 27 28 28 28 28 28 27 26 26 26 26 27 27 28 28 28 28 29 29 29 30 29 30
21 21 21 21 21 22 22 21 22 22 22 22 22 23 24 24 25 25 26 26 27 27 27 27 26 26 25 25 25 25 25 25 26 26 27 27 27 28 28 29 29 29 29 30
20 20 20 20 20 21 21 21 21 21 21 21 22 22 22 23 23 24 25 25 24 24 23 23 23 24 24 23 23 24 24 24 25 25 26 26 27 27 28 28 29 29 29 30
19 19 19 20 20 20 21 21 22 22 22 22 21 21 21 21 21 21 21 21 21 21 21 20 21 21 21 22 22 23 23 24 25 25 25 26 27 27 28 28 28 29 30 30
18 18 18 18 18 19 19 20 20 20 20 20 19 19 18 18 18 18 18 18 18 19 19 19 19 20 21 21 22 22 23 24 24 24 25 26 26 26 27 28 28 29 30 31
Wind_Direction
232 233 233 239 240 241 243 248 255 256 256 258 258 268 272 270 269 270 265 268 273 278 282 283 286 288 289 291 294 295 297 298 299 299 299 300 299 298 298 298 294 292 294 295
234 233 234 238 240 243 245 246 251 254 254 258 260 265 268 271 268 267 271 272 274 278 282 284 286 288 290 291 292 293 294 295 297 299 300 300 299 299 298 298 298 297 297 297
237 235 237 237 238 245 249 253 251 253 255 258 264 264 267 270 270 270 270 273 272 275 280 282 284 285 286 288 292 294 293 295 298 300 301 301 301 300 298 298 297 298 298 298
240 237 239 239 238 241 245 250 252 255 258 260 264 263 266 267 269 272 274 272 274 278 282 283 284 283 284 287 291 294 294 294 295 299 301 301 301 299 297 296 296 296 298 298
237 240 243 245 244 242 244 248 250 254 256 258 261 264 266 266 266 270 273 275 275 277 280 283 284 284 284 285 288 291 293 294 296 297 298 300 300 300 300 299 298 297 297 297
236 239 246 246 246 247 251 253 251 254 257 258 260 264 266 268 271 272 273 276 276 277 279 282 285 285 286 287 288 288 291 293 295 297 298 299 299 298 298 297 297 297 297 297
239 242 246 249 248 248 249 252 248 251 256 258 263 266 268 267 270 272 274 276 277 279 281 282 284 285 286 287 288 289 290 291 294 296 298 299 298 298 297 296 296 295 296 296
242 241 244 248 247 247 247 249 249 251 255 256 261 264 265 267 269 272 275 277 278 279 282 283 284 285 286 287 288 290 291 292 294 295 297 298 299 298 299 298 297 296 294 296
241 242 244 245 246 246 249 249 250 254 256 258 262 263 264 265 269 272 274 276 278 280 282 283 285 287 285 285 286 288 290 292 293 294 295 297 297 296 297 299 299 299 298 298
240 240 244 246 247 246 246 248 251 256 257 258 260 264 267 269 270 273 274 275 276 277 279 282 285 286 286 283 284 286 290 292 292 294 296 297 298 296 295 296 297 297 297 297
240 242 243 245 246 246 244 247 251 254 259 260 262 264 268 269 270 274 276 277 279 278 280 282 285 286 285 284 283 284 287 289 291 292 293 295 296 296 296 296 295 296 297 296
239 241 244 245 248 247 246 248 249 250 254 258 261 263 267 270 271 274 276 277 279 280 281 282 284 284 284 284 284 285 286 288 290 291 293 294 295 296 296 297 297 296 295 297
239 241 243 243 246 247 245 246 247 249 254 258 262 265 267 269 273 275 277 277 278 279 282 283 282 282 283 284 286 286 287 288 289 290 291 292 293 294 294 295 296 296 296 297
240 242 245 246 247 248 249 251 252 255 257 260 262 265 269 271 273 274 275 276 277 280 282 284 283 284 284 284 285 285 286 287 288 290 290 291 292 293 293 294 294 294 294 295
245 245 247 248 248 250 252 253 254 255 258 261 263 267 270 271 272 274 275 277 278 280 281 283 284 285 285 285 286 286 286 286 288 290 291 292 292 293 293 293 294 294 294 295
246 247 248 249 249 251 255 255 255 257 259 263 264 266 269 272 273 274 275 276 279 279 280 282 283 284 284 285 286 286 286 286 288 290 292 293 294 294 293 294 296 298 297 296
247 248 249 251 251 253 254 254 256 258 260 262 265 267 269 270 272 273 275 275 276 277 279 282 282 283 284 285 286 286 286 287 288 290 292 293 294 294 294 295 297 298 298 298
247 248 249 250 252 253 252 252 253 256 259 262 264 268 270 271 272 273 274 276 277 279 281 283 284 284 284 285 285 286 288 289 289 290 291 292 293 293 295 295 296 296 297 299
247 248 250 252 253 254 254 254 256 258 261 263 266 268 270 271 271 272 275 278 279 282 283 285 285 285 286 286 286 287 288 288 289 290 290 291 292 293 295 295 296 296 296 297
247 249 251 253 255 257 257 258 260 261 263 265 268 269 270 271 272 274 276 278 280 282 284 284 284 286 286 286 286 287 287 288 289 290 291 292 293 294 295 295 295 296 297 298
248 250 250 253 255 257 259 261 261 263 265 267 268 269 270 271 272 273 276 278 279 281 283 283 284 285 287 287 286 287 287 288 289 290 291 292 293 294 295 294 296 297 297 299
246 249 251 254 255 256 258 260 263 266 268 269 269 270 271 272 273 274 274 278 281 282 283 284 285 286 286 286 286 286 287 288 289 290 291 291 292 293 294 296 296 296 297 298
246 249 252 254 257 258 260 262 264 266 268 270 270 271 272 274 275 276 277 279 282 285 286 286 286 286 286 286 287 288 288 288 290 291 291 292 292 293 294 296 296 296 297 297
248 251 253 255 258 259 260 263 266 267 267 270 272 273 274 275 276 278 279 281 284 286 286 286 285 284 285 286 288 289 289 289 290 292 293 293 293 293 294 295 296 296 298 299
250 250 251 254 257 259 260 262 265 268 270 272 274 276 276 276 279 281 282 284 287 287 286 286 285 285 287 289 291 291 291 291 291 292 293 294 295 295 296 296 296 298 300 301
248 249 253 256 259 261 261 262 265 269 273 274 274 274 275 279 281 283 284 286 289 289 289 288 288 289 290 292 293 293 294 294 294 294 296 296 297 298 299 299 300 301 302 303
249 253 256 259 262 262 263 266 269 271 272 273 274 274 275 278 282 283 285 288 289 290 291 290 291 292 293 293 294 295 297 297 297 297 298 299 300 301 302 302 301 301 302 302
Height
5863 5866 5868 5870 5872 5873 5875 5876 5876 5876 5877 5875 5874 5874 5874 5873 5873 5873 5873 5873 5874 5874 5874 5874 5875 5874 5873 5872 5871 5870 5869 5867 5866 5865 5863 5861 5859 5858 5857 5855 5853 5852 5851 5849
5858 5860 5863 5865 5867 5869 5870 5870 5871 5871 5871 5871 5871 5871 5870 5870 5870 5869 5868 5869 5870 5870 5871 5871 5870 5870 5869 5868 5867 5866 5864 5862 5861 5859 5858 5856 5854 5852 5851 5849 5847 5846 5844 5843
5852 5855 5857 5859 5862 5863 5865 5865 5866 5866 5866 5866 5867 5867 5866 5865 5864 5865 5865 5866 5866 5866 5866 5866 5866 5865 5864 5863 5862 5860 5859 5857 5856 5854 5852 5850 5849 5847 5845 5843 5842 5840 5839 5837
5846 5849 5851 5854 5855 5857 5858 5859 5860 5860 5861 5860 5861 5861 5861 5860 5861 5861 5861 5861 5861 5861 5861 5861 5861 5860 5859 5858 5857 5855 5854 5851 5850 5849 5847 5845 5843 5841 5839 5837 5836 5834 5832 5830
5841 5843 5845 5847 5849 5850 5851 5852 5853 5854 5855 5855 5855 5855 5856 5854 5854 5856 5857 5857 5857 5857 5857 5856 5855 5854 5853 5853 5851 5850 5848 5846 5845 5843 5841 5839 5837 5835 5833 5831 5829 5828 5826 5824
5835 5837 5838 5841 5843 5844 5846 5846 5847 5848 5849 5849 5850 5850 5850 5849 5850 5851 5851 5852 5852 5852 5851 5850 5849 5848 5847 5847 5846 5844 5843 5841 5839 5837 5835 5833 5831 5829 5827 5825 5823 5821 5819 5817
5828 5830 5831 5834 5835 5837 5840 5840 5840 5842 5843 5843 5843 5843 5844 5845 5845 5845 5846 5846 5846 5846 5845 5844 5843 5843 5841 5840 5839 5838 5836 5835 5833 5831 5829 5827 5825 5823 5820 5818 5816 5814 5812 5811
5821 5823 5826 5826 5827 5829 5830 5831 5833 5834 5836 5836 5836 5836 5837 5839 5840 5840 5840 5840 5840 5839 5839 5838 5837 5836 5835 5834 5833 5831 5830 5828 5827 5825 5822 5820 5819 5816 5814 5811 5809 5807 5806 5804
5813 5815 5817 5817 5819 5821 5823 5825 5826 5827 5830 5830 5831 5832 5832 5833 5833 5834 5834 5834 5834 5833 5833 5832 5830 5829 5828 5827 5825 5824 5823 5821 5820 5818 5816 5814 5812 5810 5807 5805 5803 5801 5799 5797
5804 5806 5808 5810 5811 5814 5815 5817 5819 5821 5822 5824 5825 5826 5827 5827 5827 5828 5828 5828 5827 5826 5826 5825 5824 5823 5821 5820 5818 5817 5816 5815 5813 5811 5809 5807 5805 5802 5800 5798 5796 5794 5792 5790
5796 5799 5801 5803 5804 5806 5808 5810 5812 5813 5816 5816 5818 5819 5820 5821 5821 5821 5821 5821 5820 5819 5819 5818 5817 5816 5814 5813 5812 5810 5809 5808 5806 5804 5802 5800 5798 5796 5793 5791 5789 5787 5784 5782
5788 5791 5792 5794 5797 5799 5801 5803 5805 5807 5809 5810 5812 5813 5813 5813 5813 5814 5814 5814 5813 5812 5812 5811 5810 5809 5807 5806 5805 5803 5802 5800 5798 5797 5795 5793 5790 5788 5786 5784 5782 5779 5776 5774
5780 5781 5783 5786 5789 5791 5794 5796 5799 5800 5802 5804 5805 5806 5806 5806 5806 5806 5806 5806 5806 5805 5804 5803 5802 5801 5800 5799 5797 5796 5795 5793 5791 5789 5787 5785 5782 5780 5778 5776 5773 5771 5769 5766
5771 5773 5776 5780 5782 5784 5786 5789 5791 5793 5795 5797 5798 5798 5798 5798 5798 5798 5798 5798 5798 5797 5797 5796 5795 5794 5792 5791 5790 5788 5787 5785 5783 5781 5779 5777 5774 5772 5770 5768 5765 5763 5760 5758
5765 5768 5771 5773 5775 5776 5779 5782 5784 5786 5788 5789 5790 5790 5790 5791 5791 5791 5791 5790 5790 5790 5789 5788 5787 5786 5785 5783 5782 5781 5779 5777 5775 5773 5770 5768 5766 5764 5762 5759 5757 5754 5752 5749
5760 5762 5764 5766 5768 5770 5772 5774 5777 5779 5780 5781 5782 5782 5782 5783 5783 5782 5782 5782 5781 5782 5781 5780 5780 5779 5777 5776 5774 5772 5771 5769 5767 5765 5762 5760 5758 5756 5754 5751 5749 5746 5744 5741
5754 5757 5758 5760 5762 5764 5766 5768 5769 5771 5773 5774 5774 5774 5775 5775 5775 5775 5774 5774 5774 5773 5773 5772 5771 5770 5769 5768 5766 5764 5763 5761 5759 5757 5754 5752 5750 5748 5745 5743 5741 5738 5736 5734
5748 5750 5752 5754 5756 5757 5759 5761 5763 5764 5765 5766 5766 5766 5767 5767 5768 5768 5767 5767 5766 5766 5765 5764 5763 5761 5760 5759 5757 5756 5754 5752 5750 5748 5746 5744 5742 5740 5738 5735 5733 5731 5728 5726
5741 5743 5746 5748 5750 5751 5753 5754 5756 5757 5758 5759 5759 5760 5760 5760 5760 5760 5760 5759 5759 5758 5757 5756 5754 5753 5752 5751 5749 5747 5746 5744 5742 5740 5738 5736 5734 5732 5730 5727 5725 5722 5720 5718
5737 5738 5740 5742 5744 5746 5747 5748 5749 5750 5751 5751 5752 5752 5752 5753 5753 5753 5752 5752 5751 5750 5748 5747 5746 5745 5743 5742 5740 5739 5737 5735 5734 5732 5730 5728 5726 5724 5722 5719 5716 5714 5712 5709
5731 5732 5735 5736 5738 5739 5741 5742 5742 5743 5744 5744 5744 5745 5745 5745 5745 5745 5744 5743 5743 5741 5740 5739 5738 5737 5735 5733 5732 5730 5728 5727 5725 5724 5722 5720 5718 5716 5713 5711 5708 5706 5703 5701
5725 5727 5729 5730 5732 5733 5734 5735 5736 5736 5737 5737 5737 5737 5738 5738 5737 5737 5736 5736 5735 5734 5732 5731 5730 5729 5727 5725 5723 5722 5720 5719 5717 5716 5714 5712 5709 5707 5705 5703 5700 5698 5695 5693
5720 5721 5723 5724 5725 5726 5727 5728 5729 5730 5730 5730 5730 5730 5730 5730 5729 5729 5729 5728 5727 5726 5725 5723 5722 5721 5719 5717 5715 5714 5712 5711 5709 5707 5705 5703 5701 5699 5697 5694 5692 5689 5686 5683
5714 5715 5717 5718 5719 5720 5721 5722 5722 5723 5723 5723 5723 5723 5723 5723 5722 5722 5722 5721 5719 5718 5717 5715 5714 5712 5711 5709 5708 5706 5704 5703 5701 5699 5697 5695 5693 5691 5688 5686 5684 5681 5678 5675
5709 5710 5711 5712 5713 5714 5715 5716 5716 5716 5716 5716 5716 5716 5715 5715 5715 5715 5714 5713 5712 5710 5709 5708 5706 5705 5703 5702 5700 5699 5697 5695 5694 5692 5690 5688 5685 5683 5680 5678 5675 5672 5669 5666
5703 5705 5706 5707 5708 5708 5709 5710 5710 5710 5710 5710 5710 5709 5709 5709 5708 5708 5707 5706 5705 5704 5702 5701 5700 5699 5697 5696 5694 5692 5690 5688 5686 5684 5682 5680 5678 5675 5672 5670 5667 5664 5661 5658
5699 5700 5701 5702 5702 5703 5703 5704 5704 5704 5703 5703 5704 5703 5703 5702 5702 5701 5701 5700 5699 5698 5697 5696 5694 5693 5691 5690 5688 5686 5684 5682 5679 5677 5675 5673 5670 5668 5665 5662 5659 5656 5653 5649